Precipitable_Water
1.35 1.20 1.00 1.05 1.22 1.18 1.13 0.88 0.80 0.92 0.96 0.87 0.89 1.03 1.13 1.25 1.16 1.10 1.09 1.05 1.10 1.18 1.35 1.47 1.53 1.61 1.62 1.56 1.51 1.43 1.45 1.43 1.41 1.25 1.27 1.36 1.41 1.45 1.43 1.50 1.58 1.78 1.68 1.70
1.13 1.11 1.19 1.15 1.08 1.10 1.05 0.91 0.96 0.95 0.97 1.00 0.98 1.04 1.09 1.16 1.15 1.20 1.14 1.12 1.11 1.15 1.25 1.37 1.47 1.58 1.64 1.66 1.65 1.55 1.49 1.58 1.54 1.48 1.43 1.37 1.36 1.41 1.41 1.52 1.79 1.89 1.85 1.85
1.03 1.04 1.06 1.05 1.06 0.97 0.91 0.91 1.00 0.94 1.13 1.10 1.00 0.94 1.04 1.13 1.15 1.21 1.26 1.30 1.30 1.24 1.20 1.28 1.41 1.46 1.60 1.65 1.70 1.73 1.71 1.67 1.70 1.69 1.71 1.64 1.51 1.54 1.61 1.52 1.58 1.60 1.76 1.78
1.08 1.18 0.97 0.89 0.86 0.85 0.89 1.16 0.96 0.97 0.87 0.81 1.12 0.83 0.93 0.96 1.06 1.13 1.23 1.29 1.31 1.35 1.38 1.37 1.34 1.43 1.52 1.62 1.71 1.78 1.86 1.88 1.86 1.88 1.81 1.79 1.76 1.59 1.57 1.57 1.64 1.95 1.93 1.89
1.02 1.00 0.88 0.89 0.85 0.83 1.01 0.94 0.90 0.86 0.75 0.74 0.82 0.68 1.10 0.91 0.87 1.02 1.15 1.23 1.30 1.36 1.41 1.43 1.47 1.46 1.55 1.63 1.66 1.76 1.83 1.91 1.95 1.93 1.94 1.93 1.90 1.93 1.98 1.91 2.16 2.03 1.91 2.06
0.97 1.14 1.01 0.98 0.92 0.87 0.86 0.81 0.79 0.76 0.67 0.53 0.87 0.80 0.72 1.12 0.88 0.88 1.04 1.13 1.25 1.31 1.36 1.41 1.48 1.56 1.55 1.60 1.69 1.77 1.85 1.90 2.01 1.98 1.98 1.95 1.98 2.16 2.14 2.07 2.09 1.95 1.96 2.00
0.87 0.92 0.98 1.04 0.83 0.92 0.84 0.70 0.59 0.62 0.63 0.65 1.01 0.74 0.75 0.88 0.94 0.88 0.89 0.99 1.15 1.26 1.33 1.37 1.38 1.43 1.52 1.58 1.67 1.74 1.86 1.92 2.12 2.15 2.14 2.12 2.09 2.07 2.07 2.07 2.13 2.25 2.05 1.98
0.73 0.73 1.01 0.86 0.72 0.73 0.82 0.81 0.60 0.55 0.48 0.52 0.86 0.70 0.76 0.88 0.91 0.84 0.89 0.96 1.04 1.13 1.30 1.37 1.41 1.40 1.48 1.59 1.79 1.85 1.92 1.88 2.00 2.01 1.97 1.99 2.03 2.00 1.97 1.98 2.04 1.94 2.21 2.03
0.64 0.61 0.73 0.62 0.64 0.58 0.55 0.53 0.65 0.59 0.52 0.46 0.47 0.71 0.65 0.69 0.79 0.83 0.84 0.85 0.94 1.11 1.32 1.34 1.45 1.50 1.65 1.77 1.80 1.83 1.88 1.95 1.93 1.89 1.86 1.85 1.84 1.88 1.88 1.80 1.83 1.86 1.91 1.98
0.55 0.50 0.67 0.52 0.39 0.35 0.39 0.43 0.39 0.56 0.41 0.35 0.41 0.45 0.61 0.72 0.75 1.00 0.82 0.82 0.95 1.11 1.27 1.42 1.56 1.70 1.75 1.80 1.87 1.91 1.90 1.82 1.84 1.92 1.96 1.63 1.66 1.68 1.67 1.67 1.69 1.67 1.73 1.78
0.30 0.29 0.29 0.30 0.30 0.28 0.30 0.32 0.31 0.33 0.33 0.30 0.28 0.37 0.66 0.71 0.84 1.02 0.87 0.88 0.91 0.98 1.11 1.25 1.42 1.60 1.70 1.78 1.76 1.75 1.78 1.79 1.87 1.98 1.80 1.49 1.29 1.41 1.39 1.44 1.50 1.57 1.62 1.62
0.31 0.27 0.25 0.29 0.33 0.34 0.31 0.29 0.29 0.26 0.29 0.34 0.33 0.33 0.76 0.80 0.81 0.86 0.81 0.84 0.97 1.08 1.15 1.21 1.31 1.44 1.53 1.61 1.69 1.74 1.80 1.77 1.81 1.71 1.58 1.38 1.38 1.34 1.31 1.32 1.38 1.50 1.53 1.57
0.37 0.31 0.23 0.26 0.31 0.33 0.31 0.32 0.29 0.27 0.27 0.25 0.27 0.32 0.83 0.82 0.77 0.79 0.72 0.78 0.88 1.00 1.11 1.22 1.32 1.40 1.50 1.55 1.57 1.60 1.62 1.55 1.52 1.46 1.36 1.37 1.38 1.32 1.35 1.45 1.49 1.53 1.54 1.51
0.36 0.28 0.27 0.26 0.31 0.38 0.36 0.39 0.41 0.37 0.32 0.31 0.30 0.34 0.70 0.80 0.80 0.76 0.79 0.84 0.94 1.06 1.14 1.23 1.30 1.41 1.48 1.48 1.49 1.45 1.46 1.54 1.54 1.47 1.41 1.37 1.38 1.43 1.46 1.48 1.44 1.34 1.29 1.20
0.41 0.34 0.36 0.38 0.39 0.39 0.38 0.36 0.35 0.36 0.36 0.37 0.36 0.36 0.87 1.02 0.94 0.87 0.89 0.94 1.00 1.05 1.12 1.15 1.19 1.26 1.31 1.34 1.42 1.48 1.49 1.46 1.44 1.42 1.43 1.42 1.44 1.40 1.32 1.22 1.11 0.98 0.91 0.92
0.54 0.43 0.47 0.43 0.46 0.47 0.45 0.44 0.44 0.41 0.44 0.43 0.47 0.42 0.92 1.00 0.93 0.84 0.88 0.93 0.94 1.00 1.07 1.14 1.20 1.25 1.28 1.30 1.29 1.29 1.30 1.33 1.37 1.32 1.30 1.32 1.27 1.18 1.04 0.94 0.86 0.83 0.83 0.85
0.52 0.49 0.50 0.44 0.50 0.49 0.41 0.47 0.49 0.47 0.58 0.64 0.62 0.99 1.30 0.98 0.90 0.87 0.93 0.98 0.97 0.99 1.07 1.11 1.15 1.17 1.20 1.23 1.27 1.24 1.26 1.27 1.23 1.19 1.17 1.15 1.08 0.98 0.92 0.88 0.85 0.80 0.81 0.83
0.51 0.53 0.52 0.46 0.47 0.37 0.54 0.63 0.61 0.58 0.62 0.79 0.78 0.88 0.98 0.95 0.94 0.98 0.99 0.97 0.99 1.05 1.08 1.09 1.13 1.20 1.20 1.21 1.18 1.15 1.14 1.19 1.17 1.14 1.11 1.08 1.03 0.99 0.94 0.88 0.85 0.86 0.85 0.84
0.55 0.51 0.44 0.45 0.43 0.46 0.53 0.58 0.54 0.53 0.56 0.86 0.80 0.87 0.89 0.89 0.89 0.86 1.01 1.05 1.09 1.12 1.13 1.14 1.19 1.16 1.09 1.03 0.96 0.90 0.91 0.92 0.94 1.00 1.06 1.00 0.90 0.84 0.83 0.83 0.85 0.84 0.85 0.86
0.50 0.54 0.49 0.50 0.43 0.35 0.52 0.62 0.64 0.56 0.42 0.91 0.89 0.90 0.86 0.76 0.66 1.07 1.10 1.16 1.14 1.18 1.18 1.13 1.13 1.00 0.81 0.78 0.78 0.77 0.74 0.72 0.69 0.70 0.70 0.76 0.74 0.78 0.78 0.79 0.79 0.85 0.90 0.85
0.55 0.47 0.44 0.40 0.37 0.44 0.63 0.63 0.59 0.33 0.49 0.85 0.88 0.92 0.88 0.76 0.92 1.10 1.13 1.14 1.17 1.16 1.14 1.16 0.94 0.74 0.75 0.79 0.81 0.77 0.71 0.64 0.67 0.70 0.73 0.73 0.77 0.77 0.77 0.76 0.79 0.78 0.78 0.80
0.51 0.56 0.45 0.46 0.40 0.42 0.71 0.62 0.46 0.71 0.80 0.83 0.89 0.96 0.92 0.90 0.88 0.95 1.05 1.09 1.09 1.11 1.11 0.90 0.74 0.75 0.80 0.82 0.82 0.80 0.77 0.75 0.72 0.72 0.72 0.76 0.78 0.79 0.80 0.88 0.83 0.82 0.77 0.77
0.44 0.56 0.73 0.64 0.64 0.75 0.75 0.75 0.70 0.77 0.82 0.88 0.92 0.95 1.00 0.90 0.88 0.96 1.02 1.05 1.04 0.99 0.86 0.76 0.74 0.74 0.81 0.85 0.88 0.84 0.85 0.83 0.81 0.75 0.74 0.78 0.81 0.81 0.85 0.81 0.78 0.82 0.78 0.81
0.71 0.67 0.54 0.62 0.63 0.68 0.68 0.70 0.72 0.74 0.84 0.87 0.84 0.81 0.83 0.88 0.89 0.86 0.89 0.84 0.82 0.82 0.75 0.76 0.75 0.76 0.81 0.87 0.88 0.91 0.92 0.89 0.83 0.77 0.76 0.78 0.79 0.80 0.83 0.83 0.84 0.85 0.82 0.84
0.72 0.85 0.54 0.58 0.65 0.67 0.67 0.72 0.78 0.80 0.82 0.78 0.79 0.74 0.66 0.64 0.80 0.71 0.72 0.69 0.75 0.80 0.78 0.77 0.76 0.82 0.85 0.89 0.89 0.92 0.91 0.86 0.80 0.73 0.72 0.71 0.69 0.70 0.76 0.82 0.80 0.79 0.84 0.84
0.74 0.65 0.56 0.64 0.83 0.65 0.74 0.75 0.75 0.73 0.73 0.74 0.70 0.69 0.66 0.59 0.72 0.82 0.76 0.80 0.74 0.71 0.74 0.76 0.81 0.87 0.92 0.93 0.92 0.93 0.89 0.87 0.76 0.62 0.62 0.66 0.68 0.67 0.68 0.71 0.77 0.87 0.84 0.82
Wind_Speed
5 3 5 7 7 7 12 4 5 4 3 4 4 8 5 7 7 8 8 10 12 12 12 12 12 12 13 14 14 14 13 12 11 11 11 11 11 12 14 14 14 14 13 14
7 2 6 1 6 8 6 6 3 6 3 5 5 9 7 9 8 9 9 9 11 12 13 14 13 13 13 14 15 15 16 15 14 12 12 12 12 12 13 14 13 14 15 15
2 1 1 3 5 8 7 7 6 7 7 9 8 9 6 10 9 9 10 9 10 11 12 14 15 15 14 15 15 16 16 17 17 16 15 14 15 15 14 16 18 18 17 17
9 8 5 5 5 6 3 9 7 9 9 5 10 3 6 7 9 10 11 11 11 12 13 13 14 16 16 16 16 16 17 18 19 19 19 19 18 18 18 19 19 17 17 18
7 9 8 5 5 5 5 3 4 6 11 10 10 7 9 9 9 8 9 11 12 12 13 15 16 16 16 17 17 17 17 18 19 20 21 21 22 22 21 21 20 20 21 20
12 12 9 7 6 8 7 9 10 11 13 13 1 12 5 5 5 4 6 8 11 13 13 14 15 16 17 17 18 18 18 18 19 20 21 23 23 22 23 25 25 26 26 24
16 18 16 14 15 10 11 14 13 10 11 8 0 13 8 10 1 2 5 6 9 13 16 16 15 16 17 17 17 17 17 16 15 14 16 17 19 21 24 25 28 31 30 27
14 15 19 16 16 18 12 16 13 14 15 13 8 8 4 6 7 5 6 8 11 14 16 18 17 17 17 17 14 14 14 14 13 14 15 17 20 23 24 25 25 22 26 27
18 19 13 13 15 15 17 20 19 20 22 23 19 11 8 9 8 7 6 8 9 9 9 17 15 18 17 15 16 17 15 15 14 15 15 18 21 22 22 21 24 20 18 14
17 21 18 19 14 17 19 19 17 15 18 18 18 17 13 5 9 5 5 7 7 7 7 8 10 11 14 16 17 17 18 18 19 20 22 29 27 21 21 23 22 23 23 25
19 20 20 20 19 17 15 14 16 19 17 16 16 7 3 7 6 5 6 7 8 9 10 11 12 14 15 16 16 18 19 21 23 25 25 19 16 17 16 17 18 17 17 16
15 18 18 20 18 17 17 19 18 16 17 18 17 17 9 9 9 9 9 10 10 11 11 11 12 14 15 17 18 20 21 22 23 21 20 19 18 17 16 16 16 16 16 16
12 15 18 21 19 20 18 18 22 23 22 25 21 17 10 11 10 10 11 11 11 11 11 12 12 13 13 14 16 17 20 21 19 18 17 17 16 16 17 17 18 16 16 16
17 21 22 21 20 16 17 18 19 18 19 20 20 20 11 14 12 12 12 12 12 12 12 12 12 13 14 16 17 19 19 18 18 17 17 17 18 18 17 16 15 16 16 16
20 23 23 25 25 25 26 27 26 28 27 23 23 20 6 12 12 13 12 12 12 12 12 11 12 13 14 15 15 15 16 17 17 17 17 17 16 16 16 16 16 15 15 15
19 23 22 26 26 26 30 32 30 27 25 27 26 25 13 13 12 12 13 12 11 11 11 10 10 11 12 13 14 14 16 17 17 17 16 16 16 17 17 17 16 16 16 16
23 22 20 23 20 22 21 23 25 21 21 18 15 11 12 12 12 13 13 13 12 11 10 10 10 11 12 13 14 15 16 16 16 16 17 18 18 17 17 17 17 17 17 18
22 21 21 21 21 21 13 11 11 15 14 15 14 15 14 14 12 12 12 12 10 10 9 9 9 10 12 12 13 14 16 17 18 19 19 18 17 17 17 16 16 16 16 17
18 18 19 18 18 17 12 11 12 13 12 14 11 10 10 10 9 10 10 9 9 9 10 10 11 11 10 10 11 11 10 10 11 12 13 14 14 15 15 15 15 16 16 18
14 13 15 15 14 16 8 6 8 12 17 10 8 9 9 9 11 11 6 8 9 11 10 10 10 9 9 9 9 10 11 13 13 13 13 13 13 13 13 14 16 16 17 19
12 13 15 14 14 11 6 8 8 11 7 7 8 7 8 9 7 9 11 10 11 11 10 10 10 9 9 9 9 10 12 13 13 13 13 12 12 12 13 13 14 14 15 15
12 12 11 12 13 9 6 8 9 5 8 7 8 8 7 7 8 10 10 11 11 10 10 10 9 9 9 9 10 11 13 13 13 12 12 11 12 12 12 13 13 14 14 15
12 12 8 8 6 7 6 4 5 7 7 7 7 7 8 9 9 9 10 10 9 10 9 9 9 9 10 11 12 12 13 12 11 11 11 13 13 13 13 14 15 15 15 15
13 14 11 9 8 9 8 7 7 7 6 6 5 6 8 9 7 8 9 9 9 9 9 10 10 10 11 12 12 13 11 10 11 12 12 12 13 14 15 15 15 16 15 15
9 11 13 12 12 10 10 10 8 8 7 7 7 7 6 8 8 8 7 7 8 9 10 11 11 12 12 12 13 12 11 11 11 12 12 13 13 14 14 14 14 14 15 15
11 12 10 7 6 8 6 8 8 8 8 8 8 7 7 8 8 8 9 9 10 10 11 12 13 13 13 13 13 12 12 12 13 13 12 12 13 14 14 15 15 16 17 17
Wind_Direction
159 200 203 228 149 214 226 180 228 237 175 267 264 229 200 210 218 210 208 208 213 215 207 203 206 201 203 205 208 209 211 211 212 216 222 225 231 234 237 240 242 243 250 254
189 106 211 198 191 233 244 217 246 221 232 260 253 256 237 218 219 220 211 208 213 213 211 210 209 210 211 211 214 216 219 222 225 229 233 236 240 243 243 245 244 248 253 256
232 237 132 213 225 232 226 207 235 253 237 248 256 242 237 225 216 219 220 217 213 214 213 213 214 216 218 219 219 223 227 231 235 238 242 244 246 248 251 252 257 257 253 258
217 252 232 234 246 251 200 263 222 232 250 259 250 222 214 209 210 218 222 220 224 220 221 219 220 222 226 225 228 232 234 237 240 242 246 247 249 252 255 258 257 252 257 259
259 228 227 242 267 270 248 280 264 253 261 268 220 255 260 191 197 207 223 226 230 230 230 229 227 227 231 233 235 237 239 243 246 247 250 252 254 257 261 262 254 257 259 256
228 257 243 249 260 262 274 262 256 258 262 268 242 278 231 287 164 165 214 233 236 238 236 237 236 233 236 239 240 243 243 247 251 252 254 256 260 263 263 265 264 258 255 254
246 244 247 248 256 243 259 268 272 264 284 285 306 242 220 236 241 261 260 267 255 250 242 238 240 237 239 239 243 245 245 250 254 258 260 263 266 268 270 273 274 264 254 253
257 252 249 246 249 263 267 277 270 265 270 265 240 299 214 243 257 253 265 276 277 272 252 240 239 240 240 242 240 243 242 249 255 264 272 274 279 273 274 275 281 279 249 253
261 260 235 243 252 260 266 255 265 276 272 278 273 263 256 223 230 251 272 282 288 286 279 240 243 247 237 244 248 244 245 253 258 264 275 288 288 283 281 280 279 280 284 273
262 265 260 267 257 258 259 268 272 249 271 280 290 282 288 293 218 215 275 288 285 276 274 261 255 242 247 250 251 250 253 256 261 267 281 293 279 282 282 281 280 278 284 275
256 256 255 256 242 256 244 248 248 262 263 275 280 274 283 244 291 257 279 282 282 285 278 266 257 250 252 252 254 257 259 263 271 279 287 294 294 288 292 287 284 287 286 286
255 256 255 254 255 253 256 265 268 267 263 255 262 268 269 267 272 261 269 271 275 277 278 270 261 257 256 258 260 263 265 272 277 282 281 281 286 292 295 292 294 291 285 286
263 249 257 255 253 255 250 260 257 257 263 262 269 272 251 258 257 259 261 269 271 273 274 273 268 260 259 258 263 265 269 276 277 277 277 279 281 284 289 291 291 286 284 290
262 262 262 265 272 282 271 267 269 272 264 272 267 273 245 251 249 258 261 266 270 268 270 268 265 260 258 263 268 272 272 272 274 274 275 276 280 286 289 288 287 289 284 286
260 265 269 269 272 272 272 271 266 266 268 267 271 276 244 236 249 257 263 264 262 262 259 261 259 257 262 268 269 270 271 272 272 273 275 276 279 283 286 285 285 283 283 283
265 267 265 269 265 263 265 264 270 264 261 262 263 263 249 247 255 263 264 263 261 259 260 261 260 260 264 267 270 271 272 271 271 272 273 275 277 281 284 285 283 281 279 280
271 272 272 271 273 275 268 268 260 253 260 267 259 243 241 250 257 260 258 256 254 253 252 256 261 264 268 272 275 276 275 271 271 273 275 275 276 281 282 282 281 281 281 282
268 265 265 269 269 263 277 278 281 253 254 255 251 257 262 258 261 255 251 244 242 238 244 256 267 275 275 277 281 281 279 271 272 275 275 271 275 278 280 280 280 281 282 282
265 263 258 256 256 263 245 258 261 259 262 250 241 249 243 252 255 253 244 242 242 241 250 266 273 273 273 274 282 290 288 285 285 286 277 273 275 278 279 281 282 284 285 285
256 255 256 253 261 268 270 250 265 257 266 241 239 239 236 243 261 231 247 244 248 257 265 266 267 264 270 273 279 285 289 287 286 284 281 278 279 279 282 286 288 289 289 288
254 248 242 242 253 264 232 244 257 256 237 234 237 241 241 256 275 244 245 251 258 256 259 261 259 257 265 272 281 290 295 291 287 283 280 277 276 280 286 289 293 296 298 295
263 245 252 253 253 249 260 246 263 231 233 240 247 250 244 266 263 255 252 260 260 257 257 251 250 256 262 270 284 293 297 296 288 282 276 271 276 282 288 287 294 296 297 297
252 249 251 236 242 246 258 250 236 242 242 248 250 255 251 264 264 259 258 257 257 254 245 241 249 257 263 274 286 293 298 296 288 281 277 278 277 280 285 289 293 294 293 293
245 245 246 238 228 237 245 241 240 249 243 243 245 262 268 262 255 256 257 255 246 238 239 246 252 262 270 277 285 292 294 293 291 289 285 280 279 282 287 290 290 289 291 293
245 243 231 246 246 249 245 244 239 238 237 246 258 271 271 268 249 252 248 242 242 247 252 255 260 267 273 277 282 287 289 289 293 291 288 286 285 285 288 288 290 291 292 295
231 236 236 236 244 243 212 232 226 233 243 252 256 262 277 270 248 243 244 247 254 258 261 263 265 270 272 274 277 282 284 285 291 290 287 287 290 291 290 290 290 286 289 293